Whidbey Island, WA
on Monday, January 28, 2013

Monday
Previous Day Next Day
Daily Summary
 ActualAverageRecord
Temperature
Mean Temperature °F °F  
Max Temperature 45°F 46°F 55°F (2003)
Min Temperature 39°F 35°F 25°F (2002)
Degree Days
Heating Degree Days 23    
Moisture
Dew Point 38°F   
Average Humidity 83    
Maximum Humidity 89    
Minimum Humidity 74    
Precipitation
Precipitation 0.24 in in in ()
Wind
Wind Speed 15 mph   
Max Wind Speed 24 mph   
Max Gust Speed 34 mph   
Visibility 8 miles   
Events Rain   
Averages and records for this station are not official NWS values.
Key: T is trace of precipitation, MM is missing value
Source: NWS Daily Summary
Seasonal Weather Averages
Time(PST)TemperatureDew PointHumidity Pressure Visibility Wind DirectionWind SpeedGust SpeedPrecipitationEvents Conditions
12:08 AM 42.8°F 39.2°F 87% 29.99 in 10.0 miles West 18.4 mph 25.3 mph 0.01 in   Overcast
12:56 AM 43.0°F 39.0°F 86% 30.00 in 10.0 miles West 18.4 mph - 0.01 in   Overcast
1:56 AM 42.1°F 37.9°F 85% 30.01 in 10.0 miles WNW 9.2 mph - N/A   Overcast
2:56 AM 42.1°F 37.0°F 82% 30.02 in 10.0 miles NW 6.9 mph - N/A   Overcast
3:56 AM 42.1°F 37.0°F 82% 30.03 in 10.0 miles NW 3.5 mph - N/A   Overcast
4:56 AM 42.1°F 37.0°F 82% 30.03 in 10.0 miles West 9.2 mph - N/A   Overcast
5:56 AM 43.0°F 36.0°F 76% 30.04 in 10.0 miles West 12.7 mph - N/A   Mostly Cloudy
6:56 AM 43.0°F 35.1°F 74% 30.04 in 8.0 miles WNW 19.6 mph - N/A   Overcast
7:56 AM 43.0°F 35.1°F 74% 30.05 in 10.0 miles WNW 13.8 mph - N/A   Overcast
8:56 AM 43.0°F 37.0°F 80% 30.04 in 9.0 miles West 17.3 mph 21.9 mph N/A   Overcast
9:26 AM 44.6°F 37.4°F 76% 30.03 in 8.0 miles West 16.1 mph 26.5 mph 0.00 in Rain Light Rain
9:42 AM 42.8°F 37.4°F 81% 30.04 in 7.0 miles West 19.6 mph 29.9 mph 0.00 in Rain Light Rain
9:56 AM 42.1°F 36.0°F 79% 30.05 in 7.0 miles West 11.5 mph - 0.00 in Rain Light Rain
10:06 AM 42.8°F 35.6°F 76% 30.04 in 8.0 miles West 13.8 mph - 0.00 in Rain Light Rain
10:56 AM 43.0°F 39.0°F 86% 30.06 in 9.0 miles WSW 17.3 mph - 0.01 in Rain Light Rain
11:56 AM 43.0°F 37.9°F 82% 30.06 in 10.0 miles West 15.0 mph - 0.01 in Rain Light Rain
12:56 PM 43.0°F 39.0°F 86% 30.05 in 6.0 miles West 8.1 mph - 0.04 in Rain Light Rain
1:36 PM 42.8°F 39.2°F 87% 30.02 in 5.0 miles West 10.4 mph - 0.07 in Rain Rain
1:56 PM 43.0°F 39.0°F 86% 30.03 in 5.0 miles West 8.1 mph - 0.09 in Rain Light Rain
2:56 PM 39.9°F 37.0°F 89% 30.02 in 2.0 miles South 8.1 mph - 0.06 in Rain Light Rain
3:56 PM 42.1°F 37.9°F 85% 30.01 in 2.0 miles WSW 13.8 mph 26.5 mph 0.02 in Rain Light Rain
4:56 PM 44.1°F 39.9°F 85% 30.01 in 2.0 miles West 24.2 mph 32.2 mph 0.00 in Rain Light Rain
5:56 PM 44.1°F 39.9°F 85% 30.02 in 10.0 miles West 24.2 mph 34.5 mph 0.00 in Rain Light Rain
6:33 PM 44.6°F 39.2°F 81% 30.01 in 10.0 miles West 23.0 mph 31.1 mph 0.00 in   Overcast
6:56 PM 44.1°F 39.9°F 85% 30.02 in 10.0 miles West 23.0 mph 32.2 mph 0.00 in   Overcast
7:56 PM 44.1°F 39.9°F 85% 30.02 in 10.0 miles West 21.9 mph 31.1 mph N/A   Overcast
8:56 PM 44.1°F 39.9°F 85% 30.03 in 10.0 miles West 21.9 mph 32.2 mph N/A   Overcast
9:56 PM 44.1°F 39.9°F 85% 30.04 in 10.0 miles West 23.0 mph 33.4 mph N/A   Overcast
10:56 PM 45.0°F 39.9°F 82% 30.05 in 10.0 miles West 24.2 mph 33.4 mph N/A   Overcast
11:56 PM 45.0°F 39.9°F 82% 30.07 in 10.0 miles West 24.2 mph 31.1 mph N/A   Overcast
Moon Phase
Jan. 28 Feb. 03 Feb. 10 Feb. 17 Feb. 25
Sunrise:07:43 AM (PST) Moon Rise:07:18 PM (PST)
Sunset:05:04 PM (PST) Moon Set:08:00 AM (PST)

Copyright © 2014 The Weather Underground, Inc.